FENGYUN 1C DEB, 32132

Orbit data source: Space-Track

FENGYUN 1C DEB, 32132 is space debris in SSO originally from a launch on Mon, 10 May 1999 UTC launched from the Taiyaun Space Center, China (TSC). Fengyun 1C debris stems from the Chinese weather satellite Fengyun-1C, which was intentionally destroyed by a Chinese anti-satellite missile in 2007. This event dramatically increased the amount of space debris, with thousands of trackable fragments posing hazards to satellites and human spaceflight. The Fengyun 1C debris cloud has become a focal point in discussions about space sustainability and the need for international regulations to prevent the creation of new debris.

Loading next visibility...
Identifier
32132, 1999-025CSA
Orbit
SSO
Country
Flag of CNCN / PRC
Related business
Manufacturer
Unknown
Mission
Spacecraft
Bus & Motor
Unknown
Mass
Unknown
Launch date (UTC)
1999-05-10 (27 years ago)
Launch vehicle
Unknown
Launch site
Taiyaun Space Center, China (TSC)
Object type
Payload
Rocket body
Debris
Shape & HBR
Unknown shape, 0.1 m
Radar Cross Section
Small (<0.1 m²)

Expand to show TLE details & history
Last TLE update: 1 week ago

TLE from 1 week ago
0 FENGYUN 1C DEB
1 32132U 99025CSA 26258.90144820  .00004088  00000-0  94602-3 0  9991
2 32132  98.3575 317.8673 0077229 133.8456 226.9158 14.53848558748229
Epoch: 2026-09-15T21:38Z
TLE epoch observation values (Epoch: 2026-09-15T21:38:05.124Z)
Latitude
0.00002°
Longitude
-1.5148°
Altitude
753.719 km
Speed
7.458 km/s
True Right ascension
21h 11m 28s
True Declination
0° 00' 00"
Sunlit
Object was in full shadow at epoch
Visualization orbit readout
Latitude
Unknown
Longitude
Unknown
Altitude
Unknown
Speed
Unknown
Apparent Right ascension
Unknown
Apparent Declination
Unknown
Sunlit
N/A
Visualization observer readout
Local Sidereal Time
08:26:02
Azimuth
Unknown
Elevation
Unknown
Doppler factor
Unknown
Orbital elements
Apogee altitude
764.945 km
Perigee altitude
655.46 km
Semi-major axis
7,088.34 km
Eccentricity
0.00772
Inclination
98.3575°
RAAN
317.8673°
Arg. of periapsis
133.8456°
True anomaly
226.2737°
Mean anomaly
226.9158°
Eccentric anomaly
226.59433°
Mean motion
3.63686 °/min
Orbital period
98.99 mins
BSTAR
0.00094602
Loading maneuver chart data...
Computing Atmospheric mass density...

Documentation

Showing up to 5 results
|